Hartford, CT

3:39 AM EDT on March 30, 2017 (GMT -0400)
Hartford-brainard

Weather History for KHFD - April, 2014

Change the Weather History Date:

Friday, April 25, 2014

  Actual Average Record
Temperature  
Mean Temperature 50 °F -  
Max Temperature 64 °F 60 °F 82 °F (1962)
Min Temperature 36 °F 41 °F 29 °F (1956)
Degree Days  
Heating Degree Days 16    
Moisture  
Dew Point 24 °F    
Average Humidity 37    
Maximum Humidity 67    
Minimum Humidity 23    
Precipitation  
Precipitation 0.00 in - - ()
Sea Level Pressure  
Sea Level Pressure 29.94 in    
Wind  
Wind Speed 4 mph (South)    
Max Wind Speed 14 mph    
Max Gust Speed 21 mph    
Visibility 10 miles    
Events      
Averages and records for this station are not official NWS values.
T = Trace of Precipitation, MM = Missing Value Source: NWS Daily Summary

Daily Weather History Graph

Daily Weather History Graph

Search for Another Location

Airport or City:

Trip Planner

Search our weather history database for the weather conditions in past years. The results will help you decide how hot, cold, wet, or windy it might be!

Date:

Astronomy

Apr. 25, 2014 Rise Set
Actual Time 5:55 AM EDT 7:42 PM EDT
Civil Twilight 5:25 AM EDT 8:12 PM EDT
Nautical Twilight 4:49 AM EDT 8:48 PM EDT
Astronomical Twilight 4:11 AM EDT 9:27 PM EDT
Moon 3:45 AM EDT (4/25) 3:58 PM EDT (4/25)
Length of Visible Light 14h 46m
Length of Day
13h 46m
Waning Crescent, 15% of the Moon is Illuminated
Apr 25
Waning Crescent
Apr 29
New
May 6
First Quarter
May 14
Full
May 21
Last Quarter

Hourly Weather History & Observations

Time (EDT) Temp. Windchill Dew Point Humidity Pressure Visibility Wind Dir Wind Speed Gust Speed Precip Events Conditions
12:53 AM 46.9 °F - 15.1 °F 28% 29.99 in 10.0 mi Calm Calm - N/A   Clear
1:53 AM 46.0 °F 44.8 °F 15.1 °F 29% 29.97 in 10.0 mi NW 3.5 mph - N/A   Clear
2:53 AM 45.0 °F - 16.0 °F 31% 29.97 in 10.0 mi Calm Calm - N/A   Clear
3:53 AM 44.1 °F 42.5 °F 16.0 °F 32% 29.97 in 10.0 mi NW 3.5 mph - N/A   Clear
4:53 AM 37.0 °F - 26.1 °F 65% 30.00 in 10.0 mi Calm Calm - N/A   Clear
5:53 AM 36.0 °F 33.3 °F 26.1 °F 67% 30.02 in 10.0 mi SSE 3.5 mph - N/A   Clear
6:53 AM 39.0 °F - 24.1 °F 55% 30.03 in 10.0 mi Calm Calm - N/A   Clear
7:53 AM 45.0 °F - 26.1 °F 48% 30.04 in 10.0 mi Calm Calm - N/A   Clear
8:53 AM 48.9 °F - 19.9 °F 32% 30.04 in 10.0 mi NNE 4.6 mph - N/A   Clear
9:53 AM 52.0 °F - 23.0 °F 32% 30.04 in 10.0 mi NE 5.8 mph - N/A   Clear
10:53 AM 54.0 °F - 25.0 °F 33% 30.01 in 10.0 mi NNE 6.9 mph - N/A   Clear
11:53 AM 55.9 °F - 23.0 °F 28% 29.99 in 10.0 mi SW 4.6 mph - N/A   Clear
12:53 PM 57.9 °F - 21.9 °F 25% 29.96 in 10.0 mi Calm Calm - N/A   Clear
1:53 PM 60.1 °F - 23.0 °F 24% 29.93 in 10.0 mi East 6.9 mph - N/A   Clear
2:53 PM 63.0 °F - 26.1 °F 25% 29.91 in 10.0 mi SSE 8.1 mph - N/A   Clear
3:53 PM 63.0 °F - 26.1 °F 25% 29.87 in 10.0 mi South 13.8 mph 17.3 mph N/A   Clear
4:53 PM 62.1 °F - 24.1 °F 23% 29.85 in 10.0 mi South 9.2 mph - N/A   Clear
5:53 PM 61.0 °F - 24.1 °F 24% 29.83 in 10.0 mi South 13.8 mph 20.7 mph N/A   Clear
6:53 PM 55.9 °F - 28.9 °F 36% 29.83 in 10.0 mi South 9.2 mph - N/A   Mostly Cloudy
7:53 PM 54.0 °F - 27.0 °F 35% 29.85 in 10.0 mi South 10.4 mph - N/A   Clear
8:53 PM 52.0 °F - 28.0 °F 40% 29.86 in 10.0 mi South 9.2 mph - N/A   Clear
9:53 PM 51.1 °F - 28.9 °F 43% 29.87 in 10.0 mi South 6.9 mph - N/A   Mostly Cloudy
10:53 PM 48.9 °F - 30.9 °F 50% 29.85 in 10.0 mi South 9.2 mph - N/A   Clear
11:53 PM 48.0 °F - 30.9 °F 52% 29.83 in 10.0 mi SSE 6.9 mph - N/A   Scattered Clouds